Wetbulb
55.63 55.40 54.94 54.68 54.62 54.32 54.45 54.88 55.02 54.72 54.59 54.84 54.92 55.17 55.09 55.22 55.44 55.40 55.56 56.04 56.42 56.83 57.28 57.69 57.46 57.67 53.12 45.44 45.61 53.63 68.19 67.20 58.81 51.60 49.72 45.91 42.38 41.69 42.26 41.71 42.93 42.01 44.85 45.72 46.21 44.29 45.97
55.12 54.83 54.57 54.32 54.12 53.98 54.02 54.54 54.64 55.00 54.79 54.48 54.48 54.61 54.69 54.71 55.07 54.97 55.23 55.79 55.99 56.16 56.64 57.48 57.93 57.16 48.92 40.83 50.04 58.38 60.52 56.22 52.76 49.79 48.56 45.89 46.02 46.63 43.38 41.76 42.28 44.58 44.59 46.16 44.80 46.17 44.94
54.71 54.44 54.26 54.11 54.45 54.15 53.73 53.82 54.05 54.55 54.75 54.74 54.68 54.21 54.25 54.54 55.05 55.19 55.06 55.57 55.41 56.18 56.62 57.41 58.22 56.23 51.25 44.39 55.19 57.45 54.27 51.80 50.32 50.76 47.03 46.96 48.89 47.69 45.52 45.29 44.82 44.60 43.79 44.80 44.65 45.09 44.47
54.18 54.13 53.81 53.59 53.70 53.25 53.36 53.69 53.80 54.04 54.55 54.62 54.62 54.33 53.98 54.48 55.09 55.27 55.15 55.65 55.90 56.23 57.50 57.97 58.44 53.95 44.35 51.86 53.82 53.70 51.57 50.96 51.13 49.95 51.51 51.43 50.91 47.69 45.52 45.89 46.06 42.86 40.75 38.97 43.49 45.01 46.53
53.74 53.68 53.41 53.60 53.76 53.33 53.11 53.39 53.56 53.81 54.21 54.53 54.54 54.12 53.74 54.31 55.39 55.23 55.10 55.29 55.87 58.36 57.81 58.60 51.77 50.25 44.51 56.73 53.50 54.06 52.78 51.69 52.02 51.20 51.20 55.61 49.53 45.51 45.86 41.23 38.94 39.19 36.42 37.81 42.60 44.82 45.09
53.52 53.49 53.25 53.20 53.71 53.31 53.43 53.65 53.70 53.76 53.81 54.26 54.27 53.90 53.78 53.98 55.10 54.90 54.53 55.62 58.28 57.30 57.13 57.39 56.04 46.25 48.79 49.87 54.10 54.00 53.12 53.38 51.46 50.79 49.84 47.51 44.28 41.74 39.81 38.97 33.77 35.30 36.25 38.67 39.55 44.19 43.41
53.21 53.07 52.99 52.96 52.71 53.04 53.20 53.39 53.53 53.80 53.93 53.71 53.78 53.82 53.90 54.17 55.18 54.10 52.46 51.96 49.63 46.64 49.97 48.10 49.25 48.31 51.44 55.20 55.82 52.49 53.59 52.11 51.56 48.01 42.69 43.68 40.15 37.57 39.93 41.35 42.35 41.74 40.71 40.15 42.92 45.43 43.37
52.64 52.73 52.83 52.68 52.62 52.48 52.99 53.08 53.39 53.69 53.74 53.47 53.37 53.30 53.80 53.84 54.58 54.13 50.79 50.22 53.22 50.47 46.60 51.80 51.83 50.53 53.01 54.61 51.20 53.25 54.44 49.65 47.84 43.43 43.07 41.37 38.35 42.26 44.24 43.87 43.04 41.64 39.86 40.66 43.47 46.13 43.96
52.34 52.34 52.32 52.23 52.27 52.72 53.03 52.97 53.06 53.32 53.45 53.34 53.06 53.16 53.43 53.47 53.57 50.01 48.17 51.59 55.22 51.88 44.52 47.94 51.52 50.95 51.22 53.03 50.31 51.48 52.39 49.90 46.77 44.01 41.75 39.86 42.97 45.87 44.20 42.48 42.00 40.54 39.22 40.42 41.07 44.89 44.50
52.07 52.23 52.29 52.60 52.42 52.50 52.83 52.87 53.01 53.20 53.18 52.95 52.79 52.92 53.08 52.65 50.87 49.56 50.17 54.78 52.41 51.43 39.23 45.12 47.68 51.57 52.23 53.14 49.67 55.63 52.72 50.92 46.93 45.00 44.34 42.82 46.16 45.35 42.75 42.30 42.72 37.96 43.79 44.35 43.56 40.54 37.27
52.21 52.25 52.64 52.52 52.39 52.16 52.23 52.33 52.64 52.83 52.68 52.52 52.60 53.04 52.94 51.24 47.36 49.56 53.95 52.51 50.51 51.34 33.02 49.45 48.36 54.34 53.92 48.83 50.31 51.38 53.33 51.03 46.86 46.62 45.09 43.57 43.87 42.77 41.89 43.20 44.43 41.86 45.37 43.64 43.62 39.64 36.72
52.00 52.18 52.72 52.37 52.23 52.08 51.81 51.79 52.19 52.25 52.25 52.37 52.54 52.79 52.07 50.69 48.58 51.78 53.13 51.51 50.88 42.14 36.53 47.41 50.88 50.35 47.93 48.90 49.93 50.30 50.71 52.00 50.99 46.55 45.82 45.84 48.27 47.08 45.98 48.18 46.38 47.01 43.89 41.80 38.94 36.92 33.18
51.81 51.81 52.54 52.23 51.90 51.73 51.60 51.38 51.79 52.06 51.94 52.15 52.25 51.98 49.45 52.43 49.65 51.45 51.98 50.76 40.60 36.15 48.50 45.77 47.39 49.96 48.00 46.58 47.16 48.65 45.85 40.64 38.17 36.70 38.03 45.50 45.77 47.84 48.94 44.39 47.25 43.99 38.47 32.77 32.33 31.57 33.09
51.89 52.23 52.29 51.86 51.58 51.52 51.36 51.19 51.40 51.55 51.59 51.47 51.04 50.62 50.09 52.58 51.82 50.83 50.65 44.40 35.45 44.42 44.10 49.06 48.55 48.72 44.34 44.34 45.88 44.16 41.99 37.15 40.59 38.38 37.61 37.24 38.09 44.99 48.65 45.90 44.62 40.66 39.68 33.53 28.30 29.35 35.73
51.45 52.09 52.17 52.04 51.48 51.25 51.12 50.94 51.13 51.16 50.83 50.43 49.65 50.23 49.59 49.68 50.16 50.03 46.43 36.57 32.50 37.99 41.55 44.20 46.34 42.57 41.16 42.67 42.41 43.58 35.57 34.12 37.11 38.25 33.81 35.49 38.59 47.93 49.39 48.65 46.60 42.40 37.46 42.02 36.29 34.89 31.73
51.33 51.73 52.02 51.80 51.34 51.36 51.10 50.98 51.27 51.36 50.75 50.21 46.14 47.31 44.98 50.92 48.03 48.37 41.83 37.47 37.39 41.00 43.42 44.81 37.80 38.87 34.79 35.85 38.37 39.79 34.69 36.13 34.96 40.04 40.78 35.78 32.06 44.69 47.99 49.13 48.03 45.33 46.42 39.09 34.25 29.04 28.24
51.57 51.63 51.59 51.51 51.01 50.84 50.98 50.96 51.17 51.22 50.15 49.10 47.26 42.11 47.61 49.59 48.31 42.53 33.82 35.57 38.01 41.91 43.66 39.93 36.36 34.10 34.79 33.60 36.79 33.61 33.50 35.84 36.65 38.33 38.89 33.81 33.52 38.39 44.68 42.03 41.09 42.52 39.65 39.27 39.43 35.69 34.56
51.38 51.38 51.53 51.41 51.09 50.78 50.59 50.75 50.93 50.72 49.44 45.72 40.61 36.56 48.36 46.20 38.19 35.16 32.99 37.65 40.28 39.12 42.07 39.21 39.14 35.82 34.85 34.22 35.13 33.95 32.78 34.46 38.08 38.71 32.72 34.39 30.27 31.34 37.72 43.09 43.81 42.81 38.47 36.90 33.09 32.73 33.97
51.18 51.35 51.45 51.20 51.01 50.70 50.51 50.49 50.82 50.50 49.59 41.92 39.06 36.82 45.71 43.83 32.42 31.83 35.33 37.82 39.34 37.65 37.26 37.75 35.64 36.74 36.30 32.05 29.35 33.92 33.73 38.43 38.40 36.26 32.82 33.05 26.11 23.47 30.63 36.30 37.39 33.59 36.10 35.79 37.29 35.99 33.43
51.14 51.22 51.25 51.25 50.95 50.70 50.43 50.29 50.58 50.31 49.45 42.01 36.94 33.21 36.85 36.45 34.45 33.56 30.94 33.56 34.86 40.25 38.06 37.79 35.85 36.19 33.08 31.02 31.88 30.01 32.26 37.35 38.54 37.55 41.64 34.97 27.09 29.88 24.47 29.51 33.17 29.83 32.86 34.14 35.33 31.39 34.00
50.73 50.85 51.00 50.94 50.85 50.81 50.71 50.53 50.53 50.02 49.01 42.13 35.70 32.87 33.67 28.30 31.29 32.74 33.42 33.59 33.28 33.14 36.56 36.57 34.08 34.12 31.25 27.13 29.44 29.58 33.01 34.16 36.57 38.44 33.71 29.89 22.32 27.09 28.75 31.02 31.33 29.90 29.80 31.04 32.17 34.62 33.75
50.26 50.42 50.55 50.85 50.79 50.88 50.76 50.64 50.58 49.96 48.40 40.49 35.24 33.35 32.98 30.35 32.42 33.42 33.13 30.83 33.56 34.48 34.59 33.10 32.17 34.72 32.87 28.11 30.01 28.16 31.19 29.21 29.33 31.69 28.55 28.01 22.98 27.37 25.85 30.53 30.45 29.84 31.40 33.17 33.69 35.66 39.70
50.21 50.12 50.13 50.43 50.58 50.65 50.72 50.91 50.72 50.20 46.77 38.86 38.35 37.95 34.09 32.82 31.49 31.00 31.35 33.66 34.73 35.22 36.95 37.70 35.33 32.74 31.49 33.43 35.67 35.53 34.46 33.21 32.32 28.75 26.90 25.81 24.80 24.02 22.72 29.53 28.66 23.42 28.64 31.70 34.11 42.23 41.06
49.49 49.55 49.51 49.85 50.45 50.37 50.77 50.93 50.87 50.57 47.63 40.58 39.19 37.24 33.78 30.10 32.74 33.12 36.44 36.62 35.29 35.78 32.75 36.67 36.07 31.83 36.41 40.00 36.92 33.92 31.10 31.92 32.65 31.67 30.71 27.84 28.02 27.09 19.87 24.21 15.47 27.88 36.03 37.57 36.53 40.60 42.75
48.60 48.77 48.79 49.32 49.96 50.35 50.63 51.05 51.10 50.90 50.54 42.93 40.52 37.93 34.11 30.18 33.80 35.85 36.59 35.09 34.97 34.98 34.43 35.49 37.37 37.66 37.45 33.55 28.21 25.08 25.05 26.89 30.72 33.90 32.33 33.34 32.95 27.95 16.96 18.77 25.36 29.50 35.18 34.72 34.29 34.90 40.88
48.39 48.40 48.62 49.26 49.68 50.09 50.68 51.05 51.12 50.92 50.57 42.41 41.60 39.54 36.08 31.51 33.10 38.47 34.89 35.23 31.08 31.01 32.20 34.54 38.19 37.39 34.58 28.93 26.51 21.87 19.57 25.42 24.70 28.33 33.60 34.05 35.05 31.21 26.23 19.68 17.23 31.41 37.05 39.88 39.27 29.34 40.86
48.15 48.17 48.23 48.62 49.14 49.87 50.32 50.80 50.74 50.78 50.70 43.04 41.81 40.55 37.83 33.10 36.14 36.53 34.33 33.71 35.78 32.35 29.64 32.46 34.55 34.31 33.52 26.84 24.93 22.48 22.52 27.99 22.59 23.51 26.30 25.94 29.64 27.07 26.78 25.57 28.02 36.38 38.43 40.20 29.10 28.40 40.12
48.04 47.98 48.04 48.58 48.90 49.52 50.32 50.55 50.67 50.58 50.49 43.61 41.42 41.98 39.28 34.48 36.01 40.64 41.63 36.36 35.43 34.04 28.89 33.48 30.55 32.78 31.22 25.00 25.25 24.41 24.00 24.79 24.21 27.15 27.24 25.17 24.90 23.94 25.65 24.48 22.38 38.80 38.34 32.32 37.16 40.55 41.05
48.23 48.28 48.44 48.92 49.23 49.28 50.01 50.47 50.53 50.33 49.94 45.43 40.79 43.14 42.81 37.75 37.17 40.17 40.86 42.21 42.83 40.61 35.59 33.02 33.61 31.91 34.75 30.87 26.49 27.58 24.23 24.97 24.17 20.86 30.87 24.59 31.30 29.59 31.08 29.01 36.54 39.08 39.12 41.09 40.61 39.71 40.26
MSLP
1021.69 1021.21 1020.73 1020.25 1019.67 1019.17 1018.71 1018.17 1017.57 1017.05 1016.54 1015.99 1015.48 1015.05 1014.68 1014.40 1014.17 1013.93 1013.72 1013.61 1013.51 1013.41 1013.43 1013.45 1013.48 1013.47 1013.51 1012.67 1009.99 1007.60 1007.53 1007.75 1008.44 1008.92 1009.17 1009.43 1009.57 1009.57 1009.67 1009.50 1009.29 1009.28 1008.64 1008.13 1007.75 1007.82 1007.75
1021.89 1021.44 1020.94 1020.48 1019.85 1019.23 1018.73 1018.17 1017.55 1016.97 1016.43 1015.90 1015.33 1014.87 1014.51 1014.17 1013.91 1013.70 1013.58 1013.49 1013.41 1013.29 1013.27 1013.33 1013.39 1013.51 1013.13 1011.44 1007.77 1007.64 1007.93 1008.34 1008.48 1008.82 1009.15 1009.33 1009.27 1009.16 1009.29 1009.31 1009.21 1008.75 1008.47 1007.90 1007.45 1006.94 1006.88
1022.19 1021.63 1021.13 1020.57 1019.91 1019.27 1018.69 1018.13 1017.51 1016.85 1016.27 1015.70 1015.20 1014.73 1014.28 1013.94 1013.63 1013.45 1013.35 1013.34 1013.31 1013.21 1013.19 1013.22 1013.30 1013.33 1012.51 1009.18 1007.83 1007.93 1008.00 1008.15 1008.32 1008.56 1008.99 1008.96 1008.93 1009.05 1009.32 1009.19 1008.71 1008.61 1008.45 1007.79 1007.23 1006.81 1006.57
1022.45 1021.85 1021.29 1020.66 1020.01 1019.35 1018.68 1018.09 1017.52 1016.83 1016.10 1015.44 1014.86 1014.42 1013.96 1013.51 1013.24 1013.16 1013.11 1013.18 1013.16 1013.13 1013.12 1013.20 1013.31 1013.17 1011.23 1008.11 1007.86 1007.95 1007.99 1007.99 1008.10 1008.43 1008.46 1008.34 1008.75 1009.14 1009.31 1008.99 1009.00 1009.11 1008.92 1008.49 1007.39 1006.97 1006.21
1022.65 1022.11 1021.49 1020.85 1020.16 1019.47 1018.73 1018.14 1017.53 1016.83 1016.07 1015.37 1014.73 1014.22 1013.76 1013.33 1013.03 1012.89 1013.05 1013.09 1013.07 1013.01 1013.09 1013.21 1013.33 1012.76 1010.03 1007.87 1007.87 1007.27 1007.53 1007.67 1007.85 1008.23 1008.26 1008.37 1008.76 1009.27 1009.33 1009.75 1010.13 1010.29 1009.74 1009.05 1008.13 1007.13 1006.84
1022.95 1022.36 1021.70 1020.99 1020.22 1019.51 1018.75 1018.13 1017.47 1016.74 1016.02 1015.27 1014.61 1014.16 1013.61 1013.16 1012.86 1012.89 1013.02 1013.04 1013.11 1013.19 1013.32 1013.22 1012.61 1012.28 1009.09 1007.45 1006.71 1006.68 1006.84 1007.45 1007.72 1007.88 1008.28 1008.51 1009.22 1009.76 1010.46 1010.64 1010.88 1010.68 1010.14 1009.31 1008.60 1007.51 1007.03
1023.21 1022.58 1021.90 1021.16 1020.29 1019.52 1018.76 1018.10 1017.43 1016.67 1015.95 1015.16 1014.48 1013.93 1013.46 1013.03 1012.73 1012.78 1012.96 1013.27 1013.41 1013.00 1012.44 1010.97 1010.15 1009.35 1007.89 1006.70 1006.01 1006.48 1006.61 1007.45 1008.05 1008.22 1008.75 1009.00 1009.94 1010.18 1010.57 1010.57 1010.53 1010.38 1010.15 1009.73 1008.37 1007.89 1007.68
1023.46 1022.79 1022.05 1021.29 1020.46 1019.69 1018.87 1018.01 1017.21 1016.47 1015.66 1014.98 1014.34 1013.76 1013.32 1012.97 1012.67 1012.73 1012.93 1012.41 1010.83 1010.39 1010.09 1008.90 1008.45 1008.15 1007.23 1006.86 1006.96 1006.30 1006.49 1007.58 1008.15 1008.83 1009.12 1009.68 1009.67 1009.81 1009.90 1010.21 1010.43 1010.44 1010.16 1009.22 1008.21 1007.48 1008.08
1023.71 1023.05 1022.29 1021.50 1020.64 1019.75 1018.93 1017.99 1017.11 1016.13 1015.32 1014.78 1014.15 1013.66 1013.15 1012.88 1012.77 1012.83 1012.24 1010.75 1009.58 1009.71 1009.79 1007.83 1007.51 1007.21 1006.73 1006.87 1006.82 1006.15 1006.48 1007.04 1007.79 1008.78 1009.22 1009.52 1009.09 1008.95 1009.53 1009.67 1010.10 1009.97 1009.90 1009.07 1008.89 1007.65 1007.73
1023.91 1023.23 1022.51 1021.65 1020.79 1019.82 1018.89 1017.91 1016.96 1015.96 1015.09 1014.46 1013.93 1013.39 1013.01 1012.77 1013.15 1012.11 1011.22 1009.57 1009.40 1009.28 1009.51 1007.66 1006.77 1005.99 1006.23 1006.20 1006.10 1005.34 1005.71 1006.70 1007.63 1008.23 1009.01 1008.98 1008.32 1008.51 1008.88 1009.14 1009.24 1009.37 1008.69 1008.73 1008.82 1008.93 1008.59
1024.06 1023.43 1022.65 1021.75 1020.81 1019.80 1018.79 1017.79 1016.69 1015.59 1014.68 1014.07 1013.52 1012.97 1012.56 1012.61 1012.07 1011.50 1009.96 1009.40 1009.28 1009.34 1009.09 1006.90 1005.95 1005.16 1005.77 1006.09 1005.74 1005.46 1005.51 1006.38 1007.28 1007.99 1008.84 1008.27 1008.03 1008.10 1008.26 1008.04 1008.40 1008.47 1008.16 1008.76 1008.89 1009.09 1009.15
1024.19 1023.67 1022.75 1021.81 1020.77 1019.64 1018.57 1017.50 1016.37 1015.27 1014.30 1013.53 1012.90 1012.55 1012.39 1012.33 1012.04 1010.33 1009.66 1009.27 1009.43 1010.33 1009.04 1007.36 1006.41 1006.19 1006.46 1006.28 1006.35 1006.18 1006.15 1006.51 1007.11 1008.19 1008.48 1007.91 1007.41 1007.45 1007.07 1006.85 1007.40 1007.53 1008.03 1008.59 1009.23 1009.61 1009.43
1024.46 1023.82 1022.87 1021.87 1020.79 1019.65 1018.53 1017.33 1016.11 1015.01 1013.89 1012.87 1012.17 1011.97 1012.08 1011.37 1011.09 1010.09 1009.57 1009.89 1011.04 1010.94 1009.72 1009.35 1008.56 1007.98 1008.04 1008.38 1008.52 1008.46 1008.58 1010.77 1012.16 1011.70 1010.41 1008.95 1007.97 1007.06 1006.81 1006.97 1006.72 1007.51 1008.67 1009.61 1009.96 1010.13 1009.07
1024.69 1024.04 1023.10 1021.94 1020.87 1019.61 1018.42 1017.18 1016.02 1014.88 1013.61 1012.29 1011.53 1011.36 1011.57 1010.99 1010.59 1010.08 1010.29 1011.32 1012.75 1012.79 1012.02 1010.92 1010.40 1009.77 1010.42 1011.41 1011.10 1011.31 1012.23 1014.15 1014.79 1015.05 1013.70 1011.57 1009.01 1007.44 1006.53 1006.67 1006.67 1007.33 1008.23 1009.55 1009.85 1009.96 1009.07
1025.01 1024.28 1023.21 1022.15 1020.98 1019.72 1018.44 1017.11 1015.94 1014.73 1013.37 1012.10 1011.31 1011.31 1011.49 1010.83 1010.27 1010.23 1011.52 1013.77 1016.31 1016.07 1015.17 1013.47 1012.25 1012.73 1013.38 1013.65 1013.92 1013.84 1016.62 1017.84 1018.05 1017.40 1017.05 1014.95 1011.19 1008.35 1007.27 1006.49 1006.70 1007.00 1007.86 1008.13 1009.10 1009.47 1009.39
1025.36 1024.51 1023.42 1022.36 1021.10 1019.90 1018.61 1017.37 1015.87 1014.52 1013.15 1012.41 1012.07 1012.04 1011.87 1011.01 1010.47 1010.83 1012.85 1015.73 1017.36 1017.44 1016.29 1015.34 1015.71 1016.05 1016.53 1016.86 1016.30 1016.47 1018.41 1020.22 1019.87 1019.38 1018.62 1018.11 1015.48 1010.61 1008.19 1006.84 1006.51 1006.60 1007.10 1008.48 1009.70 1010.01 1009.43
1025.69 1024.79 1023.75 1022.67 1021.56 1020.34 1018.91 1017.49 1016.06 1014.55 1013.35 1012.45 1012.60 1013.09 1012.17 1011.33 1011.18 1013.27 1016.44 1017.92 1018.54 1018.14 1017.36 1017.56 1018.11 1018.49 1019.13 1019.44 1019.11 1019.49 1020.49 1020.87 1020.70 1020.21 1019.81 1019.56 1018.03 1013.48 1010.96 1009.13 1008.58 1008.14 1008.44 1008.94 1009.35 1009.80 1009.33
1026.01 1025.10 1024.06 1023.07 1021.96 1020.72 1019.36 1017.75 1016.33 1015.19 1013.71 1012.73 1014.09 1015.32 1013.44 1012.17 1014.49 1017.30 1019.05 1019.23 1019.41 1019.38 1018.85 1019.35 1019.75 1020.35 1020.76 1020.79 1020.78 1020.95 1021.50 1021.58 1021.58 1021.11 1021.05 1020.67 1019.27 1016.91 1014.13 1011.93 1011.51 1011.39 1012.47 1012.75 1012.77 1011.50 1010.27
1026.35 1025.48 1024.53 1023.59 1022.49 1021.37 1020.03 1018.50 1016.84 1015.47 1014.89 1014.83 1016.51 1016.90 1014.51 1013.61 1017.74 1020.00 1020.58 1020.66 1020.64 1020.48 1020.46 1020.70 1021.33 1021.61 1021.81 1022.28 1022.16 1022.28 1022.47 1022.03 1022.03 1021.89 1021.47 1021.29 1020.51 1018.73 1015.26 1013.78 1013.77 1014.44 1015.14 1015.37 1014.79 1013.73 1011.71
1026.85 1025.96 1025.07 1024.12 1023.13 1022.02 1020.74 1018.99 1017.55 1016.05 1015.00 1015.18 1017.65 1019.16 1019.01 1018.77 1020.54 1021.00 1021.52 1022.01 1021.65 1021.57 1021.81 1021.97 1022.31 1022.44 1022.79 1023.24 1023.31 1023.34 1023.17 1022.63 1022.37 1022.17 1021.85 1022.01 1022.21 1021.65 1019.95 1018.74 1018.30 1016.92 1016.54 1016.78 1016.50 1015.37 1012.91
1027.27 1026.54 1025.71 1024.84 1023.87 1022.73 1021.69 1020.31 1018.45 1016.69 1015.27 1015.64 1019.32 1022.17 1022.36 1023.04 1023.08 1022.64 1022.53 1023.34 1022.94 1022.74 1022.97 1022.96 1023.36 1023.61 1023.80 1024.34 1024.32 1024.14 1023.78 1023.29 1022.83 1022.31 1022.41 1022.91 1023.00 1022.44 1021.34 1020.39 1019.65 1018.72 1017.38 1016.72 1016.13 1015.09 1014.07
1027.81 1027.13 1026.37 1025.54 1024.69 1023.80 1022.77 1021.61 1019.99 1018.12 1016.62 1017.78 1021.25 1022.69 1023.40 1024.04 1024.10 1023.82 1023.88 1024.71 1024.26 1023.89 1023.96 1024.29 1024.65 1024.51 1024.51 1024.88 1025.05 1024.74 1024.35 1023.94 1023.59 1023.13 1023.11 1023.49 1023.42 1022.85 1021.53 1020.58 1019.48 1018.17 1017.70 1016.55 1015.19 1013.98 1012.61
1028.33 1027.76 1027.08 1026.37 1025.57 1024.77 1023.92 1022.94 1021.96 1020.53 1018.73 1020.86 1022.51 1022.91 1023.29 1025.29 1025.15 1025.03 1025.44 1025.32 1025.14 1024.66 1024.96 1025.09 1025.08 1024.83 1024.75 1024.63 1024.57 1024.17 1023.97 1023.89 1023.86 1023.98 1023.92 1024.13 1024.20 1023.74 1021.47 1020.53 1019.67 1018.39 1016.88 1015.91 1014.53 1013.24 1012.60
1028.85 1028.23 1027.71 1027.06 1026.45 1025.82 1025.10 1024.17 1023.17 1022.42 1022.05 1022.54 1023.73 1023.90 1024.72 1026.45 1025.88 1026.01 1025.95 1025.77 1025.75 1025.58 1025.48 1025.47 1025.31 1025.19 1024.80 1024.11 1023.91 1023.65 1023.83 1023.80 1023.52 1023.47 1023.87 1024.19 1024.14 1023.72 1022.32 1021.22 1019.98 1017.54 1016.91 1016.23 1015.10 1013.64 1013.07
1029.29 1028.88 1028.32 1027.76 1027.14 1026.47 1025.77 1025.02 1024.26 1023.64 1023.22 1023.34 1023.95 1024.45 1025.57 1026.84 1026.77 1026.55 1026.27 1026.11 1025.99 1026.09 1025.92 1025.72 1025.81 1025.65 1025.02 1024.95 1025.09 1025.21 1024.94 1024.69 1023.95 1023.49 1023.75 1023.48 1023.82 1023.54 1023.11 1021.82 1019.62 1018.14 1017.96 1017.47 1016.66 1015.17 1014.24
1029.79 1029.40 1028.86 1028.19 1027.55 1026.98 1026.50 1025.99 1025.31 1024.58 1023.97 1024.17 1024.72 1024.89 1025.59 1026.59 1027.08 1026.44 1026.29 1026.33 1026.65 1026.85 1026.55 1026.36 1026.03 1025.83 1025.64 1026.34 1026.63 1027.15 1026.89 1026.33 1025.47 1024.40 1023.44 1023.33 1023.28 1023.65 1022.66 1021.92 1020.30 1019.25 1018.76 1018.12 1017.47 1016.03 1015.16
1030.17 1029.72 1029.21 1028.75 1028.30 1027.79 1027.17 1026.55 1026.01 1025.45 1024.91 1024.77 1025.26 1025.32 1025.68 1026.78 1026.73 1026.25 1026.21 1026.51 1026.73 1027.27 1027.66 1027.43 1027.26 1026.93 1026.88 1027.51 1028.07 1028.40 1028.00 1027.33 1026.74 1025.85 1024.13 1023.64 1023.39 1023.09 1022.30 1021.49 1020.47 1019.69 1019.12 1017.86 1017.01 1017.44 1015.74
1030.57 1030.13 1029.65 1029.20 1028.63 1028.11 1027.67 1027.17 1026.63 1026.13 1025.55 1025.34 1025.91 1025.72 1025.88 1026.57 1026.78 1026.27 1026.11 1026.25 1026.55 1027.00 1027.93 1027.86 1028.12 1027.97 1028.22 1028.72 1029.14 1029.34 1029.09 1028.35 1027.77 1026.47 1025.41 1024.88 1024.29 1023.43 1022.66 1021.85 1020.71 1019.66 1018.79 1018.61 1018.02 1016.83 1016.15
1030.79 1030.45 1030.01 1029.47 1029.14 1028.69 1028.10 1027.54 1027.11 1026.70 1026.19 1025.89 1026.44 1026.10 1026.06 1026.44 1027.09 1026.59 1026.08 1025.87 1025.93 1026.33 1027.37 1028.33 1028.81 1028.97 1029.04 1029.21 1029.59 1029.77 1029.71 1029.04 1028.39 1027.29 1025.65 1025.31 1025.09 1024.47 1023.93 1022.99 1021.47 1020.84 1019.84 1018.61 1017.77 1016.79 1015.61
Wind_Speed
19 19 20 20 20 20 20 19 18 18 18 17 16 16 14 13 11 10 9 8 7 6 4 4 4 2 2 1 11 3 9 12 8 7 6 4 3 3 2 3 1 5 6 5 6 5 7
19 20 20 21 20 20 20 20 19 18 17 17 16 16 14 13 11 9 7 7 6 5 4 3 4 3 1 3 5 3 9 7 5 5 5 6 7 7 2 2 4 4 4 8 4 9 6
20 20 21 21 20 20 21 21 21 20 18 17 16 15 14 12 10 8 6 5 5 4 4 4 5 2 1 16 4 4 7 7 5 6 5 5 6 3 2 8 3 3 5 6 3 3 6
20 20 21 22 21 22 22 23 22 21 20 18 17 16 15 13 10 7 5 5 4 3 4 5 5 2 9 4 2 5 2 3 4 5 3 4 3 1 4 4 8 5 4 3 6 3 4
21 21 21 21 21 22 23 23 23 22 21 19 17 16 15 13 9 5 4 4 3 4 5 7 2 1 11 4 2 6 5 3 5 3 4 3 5 4 4 4 6 7 3 2 9 5 4
21 21 22 22 21 22 22 22 23 22 22 21 18 16 14 12 8 3 3 2 5 7 3 4 4 3 5 1 3 5 6 3 2 2 1 3 5 3 4 5 6 4 2 3 4 6 1
21 21 22 23 24 23 23 23 23 22 22 21 20 16 13 11 6 3 6 4 2 0 2 10 7 6 4 5 2 2 4 6 2 5 3 2 3 7 7 6 6 3 3 5 6 3 3
22 22 23 24 24 24 23 23 24 23 22 21 20 18 14 10 5 2 1 2 5 2 9 14 12 8 4 3 5 4 6 5 6 5 1 4 7 7 5 4 4 5 4 11 8 5 6
21 22 23 24 24 23 23 24 24 24 23 20 18 16 14 9 3 1 3 7 3 3 2 8 6 6 5 9 7 9 13 6 4 6 5 8 8 5 6 5 5 6 5 8 9 10 6
21 22 23 23 23 23 24 24 24 24 23 21 18 15 11 7 0 2 5 5 6 5 5 8 3 6 3 5 5 9 9 7 1 9 6 7 7 11 6 7 8 6 9 12 10 1 6
21 22 22 22 23 24 24 25 25 25 25 22 18 15 10 6 2 1 5 8 1 5 4 4 2 1 3 8 1 1 3 5 10 8 7 11 4 4 5 9 7 11 5 8 11 6 2
22 23 23 23 24 25 26 26 26 27 26 23 19 13 5 3 1 6 8 7 5 6 2 8 5 5 1 2 5 4 2 4 3 5 4 11 3 5 9 9 9 5 4 1 4 3 4
22 23 23 24 25 26 27 27 27 28 28 25 21 13 3 1 4 6 6 5 6 4 7 8 6 8 5 9 9 10 6 18 10 9 4 13 13 6 3 5 8 5 5 5 6 2 8
21 22 23 24 26 27 28 29 29 29 28 27 23 9 5 3 7 5 4 7 7 6 5 4 6 6 7 11 7 13 7 10 16 12 5 4 10 7 4 12 14 7 11 8 7 4 9
22 22 24 25 27 28 29 31 30 30 29 27 15 2 3 10 10 2 7 8 3 6 12 12 5 6 9 7 6 5 10 11 13 14 6 8 7 10 13 5 8 4 4 8 4 4 2
22 23 24 26 28 30 31 31 32 31 30 22 3 3 4 19 8 6 8 6 5 9 8 4 6 12 9 10 10 9 6 13 10 12 6 7 10 10 9 4 5 8 6 6 1 4 8
21 23 25 26 28 30 32 33 33 33 30 12 5 5 9 18 5 9 6 6 5 13 7 8 7 7 7 6 5 7 9 8 15 13 7 6 2 10 9 3 5 5 3 3 3 6 10
21 23 25 27 28 31 33 34 34 32 28 9 4 6 10 8 9 4 5 5 7 13 9 8 5 7 4 6 5 4 5 5 12 12 7 4 4 5 8 23 8 5 10 9 3 8 4
21 23 25 26 28 30 32 34 35 33 20 2 5 2 8 5 7 4 5 8 8 11 9 5 6 6 3 4 4 6 6 4 12 12 8 7 4 9 10 4 6 8 7 13 6 3 7
20 23 24 26 28 30 32 35 36 35 24 5 6 5 7 9 3 8 5 9 4 5 10 5 4 4 4 4 3 3 9 6 14 12 12 2 2 5 9 9 10 16 17 10 4 5 10
20 22 23 26 28 30 32 34 36 37 26 6 6 2 2 4 7 9 10 4 6 5 5 9 7 6 3 5 6 5 4 10 5 6 2 2 4 7 12 14 14 21 25 18 13 11 12
20 21 23 24 27 29 31 33 35 38 24 9 7 5 5 3 4 11 8 4 10 4 6 4 5 1 4 3 4 7 7 3 6 4 2 1 4 5 16 17 18 12 12 15 16 19 14
18 20 22 23 25 27 28 30 31 34 15 6 3 3 6 5 4 5 4 5 7 5 6 6 4 4 3 4 7 13 9 8 8 3 2 0 3 3 11 7 8 10 4 8 12 4 3
18 20 21 22 23 24 25 27 28 29 16 3 2 3 6 4 5 5 5 4 8 7 2 5 4 3 6 12 8 4 3 5 5 0 5 3 3 3 6 2 3 8 8 10 11 9 5
17 18 20 21 21 22 24 25 26 26 23 5 2 5 4 4 2 5 8 4 4 6 5 4 9 4 9 5 5 7 7 7 7 3 4 0 2 4 3 3 8 4 8 10 8 14 14
16 17 19 20 21 22 22 22 22 24 23 4 3 2 5 6 4 4 3 3 2 5 7 2 7 5 7 4 4 4 2 3 5 8 7 9 5 4 3 3 4 6 16 17 13 10 11
15 17 18 20 20 20 21 21 21 21 20 5 3 4 5 6 3 3 4 2 3 3 2 5 7 8 5 4 4 3 3 2 3 5 7 8 3 4 7 4 4 6 20 19 4 7 20
14 15 17 18 19 20 20 20 19 19 19 6 2 4 4 4 3 4 4 3 2 3 1 5 4 5 4 5 3 3 2 3 4 5 5 4 5 4 4 3 5 12 19 5 4 12 14
13 14 15 17 16 17 18 18 17 16 17 6 3 3 2 5 3 2 2 3 3 2 4 3 3 1 1 1 1 1 2 3 3 5 5 4 1 5 4 5 11 15 19 13 13 16 19
Wind_Direction
13 10 8 4 3 1 355 351 349 346 344 342 339 335 329 321 312 305 304 299 295 296 286 242 229 244 243 342 252 295 70 123 116 138 162 143 145 136 163 201 293 171 251 272 255 280 219
11 9 6 1 0 360 356 352 348 344 342 341 340 336 331 323 312 302 292 291 287 289 274 224 195 164 182 260 243 145 116 122 126 129 158 146 187 207 263 247 167 199 245 282 284 286 226
8 8 4 359 357 358 357 352 348 344 341 341 339 338 335 326 317 301 289 283 276 269 247 197 179 233 196 236 31 139 145 165 174 168 162 206 179 85 94 322 255 261 317 340 292 295 264
8 6 4 359 355 356 356 351 346 344 342 343 342 339 338 334 325 300 283 267 258 231 186 168 174 256 248 249 244 157 194 204 175 197 230 173 161 151 177 242 1 3 50 344 289 5 288
8 4 3 359 353 352 353 348 342 341 342 343 343 340 340 338 327 301 256 252 236 158 143 150 147 173 267 321 223 218 174 211 145 179 269 284 133 185 52 76 11 4 244 218 308 215 252
6 4 1 358 354 351 350 346 339 338 342 344 344 340 338 339 328 257 211 140 140 120 151 214 255 336 276 280 213 188 201 177 224 140 301 160 56 78 36 80 230 239 306 296 239 292 51
5 2 360 357 355 351 348 343 338 337 339 344 344 341 341 342 341 168 119 103 41 291 228 202 195 234 284 263 219 188 159 113 311 50 192 5 80 220 228 204 190 279 255 254 261 219 337
3 1 358 355 353 349 346 342 337 335 338 341 344 340 339 344 360 140 308 209 236 176 297 228 237 256 269 57 335 306 102 142 138 208 124 353 252 217 218 180 204 242 269 277 290 249 158
2 360 357 354 349 347 344 342 336 335 338 339 339 335 333 335 344 113 210 235 139 38 312 297 186 207 209 152 209 258 157 169 147 158 185 196 228 144 187 243 220 229 206 268 232 310 212
1 358 355 352 348 347 345 342 338 335 334 336 336 331 326 322 275 216 257 270 331 168 41 285 265 283 128 164 250 208 171 140 153 197 193 235 246 236 210 232 166 264 208 246 273 355 257
1 357 352 351 349 348 345 342 339 337 334 333 334 329 321 242 181 164 271 327 280 55 56 334 64 134 146 164 256 75 190 70 189 199 129 241 211 191 209 226 148 234 229 219 247 237 203
2 356 353 353 351 350 346 343 342 337 333 332 334 330 322 111 360 246 309 311 61 43 358 351 26 352 140 273 346 11 125 47 207 193 246 231 202 182 227 263 171 243 320 82 46 115 235
1 355 353 354 352 350 346 344 343 339 333 334 334 328 205 327 310 328 329 42 44 74 324 354 338 339 40 355 8 15 20 52 30 348 297 273 253 251 196 291 286 164 74 316 311 305 235
0 355 354 356 353 352 348 345 344 340 335 338 334 335 191 198 298 325 49 55 70 345 352 2 329 334 74 8 2 14 65 28 29 4 295 259 291 187 218 203 230 188 157 167 241 248 285
2 356 357 358 355 353 350 347 344 342 340 340 324 351 56 339 337 44 70 57 46 335 327 329 337 20 16 6 358 56 65 13 26 358 358 344 278 328 303 236 155 250 170 206 207 294 332
3 359 360 359 358 354 351 348 346 344 344 341 53 47 38 339 338 58 70 100 98 0 332 16 48 17 42 0 16 21 39 18 359 354 336 351 290 269 299 293 255 186 183 252 44 215 252
3 2 2 1 359 356 352 349 349 347 343 338 49 49 322 341 38 49 79 70 49 352 28 42 23 41 65 8 341 22 21 50 14 357 29 359 248 305 338 292 284 331 290 253 233 161 247
6 5 4 3 0 359 354 350 351 350 345 36 73 54 328 350 54 41 43 6 47 0 16 52 71 57 54 347 27 89 59 35 19 12 2 3 279 279 281 301 330 29 21 48 44 305 262
8 7 6 4 3 1 357 353 350 354 1 63 83 12 316 29 91 50 56 68 84 45 28 61 45 54 359 34 48 63 25 351 20 9 358 348 322 317 304 359 32 40 355 1 287 206 250
10 9 7 7 5 3 1 356 354 352 354 86 78 44 345 26 52 110 109 32 81 39 45 40 16 60 34 46 338 8 2 342 333 323 327 32 287 259 266 296 314 303 312 328 292 284 320
14 11 10 9 7 5 4 0 356 355 353 87 37 66 235 4 11 63 70 29 27 33 58 15 26 52 38 39 343 355 272 312 285 280 357 145 242 246 268 282 299 287 289 290 264 261 258
15 14 11 10 10 8 6 5 2 359 348 74 100 103 13 46 24 53 28 30 40 20 31 37 51 12 72 126 204 278 290 261 247 321 306 335 264 277 284 275 266 275 298 282 267 262 254
15 13 13 11 11 10 8 8 8 7 12 67 353 48 98 346 24 64 20 38 37 12 69 88 3 4 328 289 275 264 244 249 242 262 279 174 324 319 280 277 291 294 241 277 277 210 269
16 15 13 12 11 10 11 9 10 14 29 82 31 86 69 31 59 54 39 75 42 15 8 13 22 27 266 309 300 300 263 269 239 217 175 199 301 230 278 238 247 242 9 321 319 281 3
17 15 13 11 10 11 11 10 8 11 17 65 11 78 90 76 81 72 55 34 12 343 356 10 1 280 299 355 19 7 350 9 327 31 196 22 2 289 290 246 280 325 16 341 346 301 302
17 14 13 11 11 10 10 10 9 8 11 63 55 87 92 117 329 280 80 27 31 343 340 322 328 335 22 52 53 43 329 313 324 320 283 339 252 254 255 249 272 22 338 324 304 254 358
14 12 12 10 8 8 9 9 10 10 10 42 19 38 83 104 271 73 60 51 63 33 297 307 344 350 30 16 53 34 310 322 304 304 312 318 321 275 294 272 287 1 330 317 225 310 319
8 7 6 3 5 6 6 8 9 8 9 35 281 5 107 104 308 34 27 50 54 77 115 286 32 5 15 45 43 343 319 298 325 268 282 297 332 316 314 316 330 338 331 320 273 295 301
0 359 358 359 357 359 3 6 7 7 9 33 17 354 3 86 177 310 331 327 126 143 142 12 156 289 181 78 45 337 312 333 317 290 320 342 139 305 294 280 295 312 304 304 294 287 299